Retour au catalogue

STARLINK-33757

ActifCommunicationsVLEO
NORAD 63720·PAYLOAD·🇺🇸 United States

Lancé Apr 28, 2025 depuis Vandenberg Space Force Base

Loading…

Prochains Passages (prochaines 24 heures)

TLE

FraisSource: CelesTrak SupGP

Époque: Sep 15, 2026, 03:05 UTC

1 63720C 25087Z   26258.12895833 -.00023240  00000+0 -68679-3 0  2581
2 63720  53.1598  58.5789 0001198  88.2541  83.1792 15.34395680    15

Suivez STARLINK-33757 en temps réel avec AllMySat

Download on the App Store